Location: Observatoire
(46.1952°N, 5.3391°E)
Time: 21:26:23
(UTC+02:00)

ISS - Visible Passes

Search period start: 21 September 2021 00:00
Search period end: 01 October 2021 00:00
Orbit: 419 x 423 km, 51.6° (Epoch: 21 September)

Date Brightness Start Highest point End Pass type
(mag) Time Alt. Az. Time Alt. Az. Time Alt. Az.
21 Sep -3.8 20:07:15 10° WSW 20:10:37 82° SSE 20:14:00 10° ENE visible
21 Sep -2.4 21:44:35 10° WNW 21:47:43 34° N 21:47:52 34° N visible
22 Sep -2.6 20:57:30 10° W 21:00:43 40° NNW 21:02:48 18° NE visible
22 Sep -0.6 22:35:00 10° WNW 22:35:48 15° NW 22:35:48 15° NW visible
23 Sep -3.0 20:10:26 10° W 20:13:43 50° NNW 20:17:01 10° ENE visible
23 Sep -2.1 21:47:59 10° WNW 21:50:41 30° NNW 21:50:41 30° NNW visible
24 Sep -2.3 21:00:55 10° WNW 21:03:59 31° N 21:05:32 21° NE visible
24 Sep -0.4 22:38:06 10° WNW 22:38:31 13° NW 22:38:31 13° NW visible
25 Sep -2.4 20:13:50 10° WNW 20:16:57 34° N 20:20:04 10° ENE visible
25 Sep -1.9 21:51:10 10° WNW 21:53:21 29° NNW 21:53:21 29° NNW visible
26 Sep -2.5 21:04:12 10° WNW 21:07:17 32° N 21:08:10 28° NE visible
26 Sep -0.2 22:41:06 10° WNW 22:41:09 10° WNW 22:41:09 10° WNW visible
27 Sep -2.4 20:17:11 10° WNW 20:20:14 31° N 20:22:59 12° ENE visible
27 Sep -1.7 21:54:11 10° WNW 21:55:58 28° NW 21:55:58 28° NW visible
28 Sep -3.1 21:07:16 10° WNW 21:10:31 43° NNE 21:10:48 42° NNE visible
29 Sep -2.7 20:20:20 10° WNW 20:23:29 36° NNE 20:25:39 17° ENE visible
29 Sep -1.4 21:57:10 10° WNW 21:58:39 24° WNW 21:58:39 24° WNW visible
30 Sep -3.8 21:10:13 10° WNW 21:13:32 80° N 21:13:32 80° N visible
